Aérodrome :
LOGIN :

S'inscrire | Disclaimer

   EN    FR    IT 

 










Légende :    VFR   VFR Marginal   IFR   IFR Intensif   IFR Très Intensif
Visi : 
Plafond : 
>= 8 km
>= 3000ft
5 à 8 km
1000 à 3000 ft
1500m à 5 km
500 à 1000 ft
800 à 1500m
200 à 500 ft
< 800m
< 200 ft
Symboles :   Orages  Brouillard  Fortes neiges  Fortes précipitations  Vent > 20 kt
SIGMETs :   Divers  Orages  Givrage  Turbulence  Onde Orograph.  Cendres Volcan.







- Altitude de l'aérodrome : 74 ft
- Code IATA : MRS
- Voir les cartes d'approche


LFML - Marseille / Marignane

DERNIER METAR :
  • 190230Z AUTO 13004KT 090V150 CAVOK 16/14 Q1015 NOSIG

METARs EXPIRÉS :
  • 190200Z AUTO 14002KT CAVOK 16/14 Q1015 NOSIG
  • 190130Z AUTO VRB01KT CAVOK 16/15 Q1015 NOSIG
  • 190100Z AUTO 16003KT 130V190 CAVOK 16/15 Q1015 NOSIG
  • 190030Z AUTO VRB02KT CAVOK 17/15 Q1015 NOSIG
  • 190000Z AUTO 16001KT CAVOK 16/15 Q1015 NOSIG

TAF TAF LFML
Valide du 19 à 03h jusqu'au 20 à 09h UTC


190200Z 1903/2009 VRB05KT CAVOK TX26/1914Z TN13/2006Z
ATIS : +33 4 42 31 15 15
Pas de NOTAMs connus pour ce terrain.



MET'MAP, la Météo Aéronautique d'un coup d'oeil ! - Copyright ORBIFLY Décembre 2007 - Disclaimer

ORBIFLY MET'MAP TEAM :

Programmation & Développement : Alexandra Zaïnal
Conception & Développement : Baudouin d'Aumeries
Co-Programmation & Développement : Marc-Olivier Méhu
Soutien technique & logistique : Manuel Goepfert

Contact : metmap@orbifly.com




SOURCES & CREDITS :

   NOAA